EHI
0 0 0 0 0 0 0 0 0 0 0 0 0 0 0 0 0 0 0 0 0 0 0 0 0 0 0 0 0 0 0 0 0 0 0 0 0 0 0 0 0 0 0 0
0 0 0 0 0 0 0 0 0 0 0 0 0 0 0 0 0 0 0 0 0 0 0 0 0 0 0 0 0 0 0 0 0 0 0 0 0 0 0 0 0 0 0 0
0 0 0 0 0 0 0 0 0 0 0 0 0 0 0 0 0 0 0 0 0 0 0 0 0 0 0 0 0 0 0 0 0 0 0 0 0 0 0 0 0 0 0 0
0 0 0 0 0 0 0 0 0 0 0 0 0 0 0 0 0 0 0 0 0 0 0 0 0 0 0 0 0 0 0 0 0 0 0 0 0 0 0 0 0 0 0 0
0 0 0 0 0 0 0 0 0 0 0 0 0 0 0 0 0 0 0 0 0 0 0 0 0 0 0 0 0 0 0 0 0 0 0 0 0 0 0 0 0 0 0 0
0 0 0 0 0 0 0 0 0 0 0 0 0 0 0 0 0 0 0 0 0 0 0 0 0 0 0 0 0 0 0 0 0 0 0 0 0 0 0 0 0 0 0 0
0 0 0 0 0 0 0 0 0 0 0 0 0 0 0 0 0 0 0 0 0 0 0 0 0 0 0 0 0 0 0 0 0 0 0 0 0 0 0 0 0 0 0 0
0 0 0 0 0 0 0 0 0 0 0 0 0 0 0 0 0 0 0 0 0 0 0 0 0 0 0 0 0 0 0 0 0 0 0 0 0 0 0 0 0 0 0 0
0 0 0 0 0 0 0 0 0 0 0 0 0 0 0 0 0 0 0 0 0 0 0 0 0 0 0 0 0 0 0 0 0 0 0 0 0 0 0 0 0 0 0 0
0 0 0 0 0 0 0 0 0 0 0 0 0 0 0 0 0 0 0 0 0 0 0 0 0 0 0 0 0 0 0 0 0 0 0 0 0 0 0 0 0 0 0 0
0 0 0 0 0 0 0 0 0 0 0 0 0 0 0 0 0 0 0 0 0 0 0 0 0 0 0 0 0 0 0 0 0 0 0 0 0 0 0 0 0 0 0 0
0 0 0 0 0 0 0 0 0 0 0 0 0 0 0 0 0 0 0 0 0 0 0 0 0 0 0 0 0 0 0 0 0 0 0 0 0 0 0 0 0 0 0 0
0 0 0 0 0 0 0 0 0 0 0 0 0 0 0 0 0 0 0 0 0 0 0 0 0 0 0 0 0 0 0 0 0 0 0 0 0 0 0 0 0 0 0 0
0 0 0 0 0 0 0 0 0 0 0 0 0 0 0 0 0 0 0 0 0 0 0 0 0 0 0 0 0 0 0 0 0 0 0 0 0 0 0 0 0 0 0 0
0 0 0 0 0 0 0 0 0 0 0 0 0 0 0 0 0 0 0 0 0 0 0 0 0 0 0 0 0 0 0 0 0 0 0 0 0 0 0 0 0 0 0 0
0 0 0 0 0 0 0 0 0 0 0 0 0 0 0 0 0 0 0 0 0 0 0 0 0 0 0 0 0 0 0 0 0 0 0 0 0 0 0 0 0 0 0 0
0 0 0 0 0 0 0 0 0 0 0 0 0 0 0 0 0 0 0 0 0 0 0 0 0 0 0 0 0 0 0 0 0 0 0 0 0 0 0 0 0 0 0 0
0 0 0 0 0 0 0 0 0 0 0 0 0 0 0 0 0 0 0 0 0 0 0 0 0 0 0 0 0 0 0 0 0 0 0 0 0 0 0 0 0 0 0 0
0 0 0 0 0 0 0 0 0 0 0 0 0 0 0 0 0 0 0 0 0 0 0 0 0 0 0 0 0 0 0 0 0 0 0 0 0 0 0 0 0 0 0 0
0 0 0 0 0 0 0 0 0 0 0 0 0 0 0 0 0 0 0 0 0 0 0 0 0 0 0 0 0 0 0 0 0 0 0 0 0 0 0 0 0 0 0 0
0 0 0 0 0 0 0 0 0 0 0 0 0 0 0 0 0 0 0 0 0 0 0 0 0 0 0 0 0 0 0 0 0 0 0 0 0 0 0 0 0 0 0 0
0 0 0 0 0 0 0 0 0 0 0 0 0 0 0 0 0 0 0 0 0 0 0 0 0 0 0 0 0 0 0 0 0 0 0 0 0 0 0 0 0 0 0 0
0 0 0 0 0 0 0 0 0 0 0 0 0 0 0 0 0 0 0 0 0 0 0 0 0 0 0 0 0 0 0 0 0 0 0 0 0 0 0 0 0 0 0 0
0 0 0 0 0 0 0 0 0 0 0 0 0 0 0 0 0 0 0 0 0 0 0 0 0 0 0 0 0 0 0 0 0 0 0 0 0 0 0 0 0 0 0 0
0 0 0 0 0 0 0 0 0 0 0 0 0 0 0 0 0 0 0 0 0 0 0 0 0 0 0 0 0 0 0 0 0 0 0 0 0 0 0 0 0 0 0 0
0 0 0 0 0 0 0 0 0 0 0 0 0 0 0 0 0 0 0 0 0 0 0 0 0 0 0 0 0 0 0 0 0 0 0 0 0 0 0 0 0 0 0 0
Wind_Speed
3 5 5 5 2 0 3 4 4 3 2 3 5 5 7 9 10 10 10 9 9 8 7 7 7 7 7 6 6 6 7 7 5 4 3 3 4 3 4 4 6 5 5 5
6 5 3 3 3 3 4 5 4 3 2 3 4 6 6 9 11 11 11 11 11 9 9 8 9 8 8 7 7 7 7 6 5 3 3 3 3 3 4 3 4 5 6 6
5 4 5 6 6 6 4 4 3 3 3 3 4 5 8 8 10 10 10 11 11 11 12 11 10 9 8 8 8 6 7 7 6 5 3 3 4 3 3 4 4 5 5 5
3 4 6 6 6 6 4 3 3 4 4 3 4 4 6 9 10 11 12 12 12 12 12 11 11 11 10 9 8 7 7 7 6 5 4 4 3 3 4 3 4 4 5 5
4 5 6 6 5 5 2 3 4 4 4 4 5 6 4 8 10 12 13 14 13 13 13 13 12 11 10 9 7 7 7 7 6 5 4 4 3 3 3 3 4 4 5 5
3 3 3 3 3 4 6 5 4 4 5 6 4 6 3 5 7 9 11 13 15 14 14 13 12 10 9 9 8 7 7 7 6 6 6 4 5 4 4 4 4 3 4 4
6 6 4 4 7 7 7 6 4 6 5 3 2 5 4 1 3 6 10 12 14 15 15 15 14 13 12 11 10 9 9 8 7 7 6 6 5 4 4 4 4 3 3 3
8 8 8 7 6 6 7 7 4 3 2 2 4 5 1 1 3 5 7 10 13 15 15 15 15 14 13 12 11 10 10 9 8 8 7 6 5 3 3 3 3 3 3 4
7 5 5 4 3 5 7 6 4 4 3 4 4 3 3 3 3 3 6 8 12 15 15 15 15 14 13 13 12 11 11 10 9 8 7 6 6 5 5 5 4 3 3 4
5 5 6 5 5 2 4 4 5 5 4 4 3 4 2 1 2 4 5 7 10 13 15 15 15 14 13 12 11 11 11 10 9 8 7 5 6 5 4 4 4 4 5 4
7 6 7 8 9 8 7 7 6 5 4 4 2 1 2 1 1 1 3 6 9 12 13 14 13 13 13 12 12 11 11 10 9 9 8 8 7 6 6 4 5 4 5 5
7 6 6 6 2 3 8 8 8 6 5 5 4 0 3 1 1 1 3 4 7 10 12 12 13 13 13 13 12 12 11 11 10 9 9 8 8 7 7 6 6 5 5 4
8 7 6 6 6 7 8 8 9 8 6 6 6 2 3 2 2 1 2 3 6 9 11 12 13 13 13 13 13 12 12 11 10 10 10 9 9 8 8 7 6 6 5 5
7 7 8 6 1 6 9 10 11 11 8 8 9 8 5 5 5 3 3 4 6 9 11 12 13 13 13 13 13 13 12 11 11 11 10 10 9 9 8 7 7 6 6 6
8 8 8 6 3 4 7 9 12 14 13 12 10 10 10 8 6 6 4 5 6 9 11 13 13 13 13 13 13 13 12 12 12 12 11 10 10 9 8 7 7 6 6 6
8 8 8 8 7 8 10 11 12 14 14 15 14 14 10 7 6 6 6 6 8 10 11 12 13 14 15 15 14 13 13 13 12 12 11 10 10 10 9 8 8 7 6 6
8 8 8 7 6 7 11 12 13 13 12 12 14 12 8 7 7 7 6 7 8 9 10 12 13 14 15 15 15 15 14 13 13 13 12 11 11 10 10 9 8 8 7 6
9 9 6 5 6 10 5 2 7 11 12 13 14 13 10 9 8 8 7 8 9 9 10 11 11 13 13 14 14 13 13 14 14 13 12 12 11 11 10 9 9 8 7 7
10 8 6 6 8 8 6 6 7 9 10 10 12 11 9 7 7 8 6 7 8 8 8 9 10 11 12 13 14 14 14 14 14 13 13 12 12 12 11 11 10 8 7 7
9 9 7 7 7 7 4 3 4 6 8 4 7 8 7 6 7 4 2 4 5 5 6 7 9 11 11 12 13 14 14 14 14 13 12 12 12 12 12 11 10 8 7 7
10 9 11 11 9 7 3 3 6 6 1 2 1 3 5 6 5 1 1 2 3 4 5 7 9 10 10 11 13 14 14 14 13 12 12 12 12 12 11 10 9 8 7 7
11 9 11 10 10 7 4 7 6 3 3 2 3 3 4 4 3 2 1 1 2 4 5 7 8 8 9 11 12 13 13 12 11 11 11 11 11 10 9 9 9 8 8 8
9 8 5 7 5 1 4 5 3 3 4 3 3 2 2 3 3 1 1 1 2 4 5 6 7 8 8 10 11 12 11 10 11 11 11 11 11 10 9 10 9 8 8 7
6 5 6 6 6 5 4 4 4 4 4 4 2 1 2 2 2 1 1 2 3 4 5 6 7 8 8 8 9 9 10 11 12 12 11 11 11 10 9 8 8 8 8 7
5 7 7 8 6 4 5 4 3 3 2 1 1 1 2 2 1 2 2 2 3 3 4 5 6 6 7 8 8 8 10 11 12 11 10 10 9 9 9 8 6 7 7 6
6 7 8 6 5 5 3 2 2 2 1 1 0 1 2 2 2 2 2 2 2 3 4 5 5 6 7 8 8 8 9 11 11 10 10 8 8 7 7 7 6 2 1 3
Wind_Direction
178 200 192 180 191 255 180 185 174 141 134 224 218 200 182 182 192 191 188 193 190 188 174 166 164 166 159 162 165 153 155 147 144 137 129 111 98 88 78 64 55 54 54 55
181 189 161 151 164 184 193 190 175 153 142 235 225 222 198 194 202 201 197 196 195 185 173 171 175 175 172 173 177 167 158 153 149 128 110 107 99 87 77 77 71 56 56 52
189 126 151 175 178 189 196 213 199 182 162 205 237 226 199 198 205 204 209 206 198 191 183 179 181 177 179 182 181 171 157 157 153 144 128 127 120 124 114 95 73 54 51 52
174 147 176 188 191 216 195 200 207 202 214 204 235 250 197 195 199 204 207 206 202 191 189 184 182 183 185 184 180 175 163 163 155 158 156 145 131 110 94 91 91 85 64 61
166 176 189 197 191 216 153 157 199 222 240 240 220 252 203 185 208 209 207 204 202 195 191 188 187 186 184 176 177 179 167 166 163 167 154 164 137 120 117 114 104 96 80 66
150 175 217 192 163 177 147 160 167 206 235 243 226 247 240 194 218 214 207 205 199 195 192 188 185 183 182 176 174 177 174 171 169 176 174 168 145 144 134 130 118 111 100 82
175 176 169 181 167 170 199 204 203 203 210 229 172 247 255 237 235 227 216 208 198 192 189 187 183 184 184 183 182 180 179 177 178 182 181 172 165 155 144 136 127 122 110 100
191 181 179 194 213 196 204 225 244 249 239 183 195 241 247 317 252 234 217 207 195 191 190 189 187 187 186 186 186 184 183 183 181 185 181 173 164 169 140 140 130 124 108 101
203 170 152 187 218 218 197 220 274 284 271 260 217 218 244 214 202 196 192 190 190 189 189 189 188 188 188 187 187 187 185 185 183 184 179 177 172 165 152 150 138 125 120 115
218 182 162 158 174 196 255 206 209 236 252 246 232 234 230 158 159 167 178 184 186 188 190 190 189 189 187 186 186 188 188 185 181 181 181 175 170 159 155 153 147 140 130 122
216 202 167 183 206 192 184 204 222 233 252 273 259 135 75 352 352 189 188 190 189 190 191 191 191 191 187 182 183 186 187 185 180 181 179 174 168 165 162 160 153 155 147 145
205 226 196 189 171 264 227 220 220 232 222 247 271 233 123 239 302 248 222 196 192 191 191 190 190 189 187 187 186 188 185 185 182 181 178 178 168 171 169 164 165 166 153 145
180 214 197 180 185 196 217 219 229 243 247 241 246 226 134 222 266 256 242 214 197 189 188 188 188 190 189 189 188 188 188 185 179 180 180 180 177 177 172 168 166 166 158 154
200 220 229 223 188 185 205 207 219 230 237 243 243 261 252 255 275 276 258 226 205 195 189 188 188 191 191 190 190 186 187 182 177 177 182 183 183 180 177 169 170 170 164 162
216 229 231 245 249 227 229 222 217 229 242 255 262 266 270 275 278 274 259 226 208 199 194 192 191 191 190 189 190 187 183 180 177 179 183 184 182 178 175 168 171 170 169 170
218 233 229 231 228 236 246 243 234 235 243 252 262 267 269 276 269 259 248 224 212 207 199 196 196 194 191 188 188 185 182 180 179 181 184 179 180 176 178 175 173 171 173 173
204 221 228 233 217 235 246 237 234 235 237 246 255 259 265 264 260 256 252 233 221 211 203 198 197 196 194 190 188 186 183 178 181 184 183 178 180 178 180 174 172 174 175 173
212 219 230 237 222 238 248 233 238 242 247 247 253 262 266 266 267 261 253 239 230 216 205 200 196 195 194 190 187 183 178 178 181 183 182 180 180 179 178 177 179 179 177 175
219 214 221 231 238 254 248 226 222 236 252 251 251 256 256 255 262 253 238 232 231 221 209 199 193 189 185 184 181 178 178 179 182 184 182 181 182 181 180 182 184 181 179 180
205 215 221 224 237 244 235 165 200 241 257 255 248 247 236 218 236 238 208 213 221 214 206 193 183 178 177 177 176 177 178 180 185 186 183 182 183 183 184 185 183 177 178 181
186 202 217 225 235 250 253 153 180 225 284 41 288 245 224 217 244 303 294 198 192 189 182 176 175 172 170 170 174 180 181 186 185 181 179 179 183 185 183 179 177 173 174 177
197 201 210 217 228 233 156 172 212 275 353 334 321 273 242 235 249 259 247 170 168 163 162 165 165 163 164 171 178 184 188 184 174 171 175 177 179 178 175 173 174 174 172 175
213 216 215 221 231 302 169 208 254 292 290 307 319 307 232 219 220 225 195 160 160 155 155 161 160 156 162 176 185 187 181 168 165 169 173 176 174 173 173 173 173 174 178 184
203 209 217 227 237 242 240 243 248 268 276 292 291 252 205 193 174 157 153 151 152 156 155 160 161 160 164 175 183 182 169 167 169 172 173 174 174 171 173 175 178 180 184 188
198 193 217 232 240 244 231 238 262 275 278 304 316 160 166 160 145 149 151 152 154 154 154 160 163 163 163 167 172 169 167 169 170 170 170 172 173 170 174 176 182 191 191 195
200 208 218 229 223 236 234 252 258 265 277 269 125 91 105 133 145 150 145 145 154 155 154 157 158 162 161 160 161 162 166 169 169 168 169 168 167 169 172 169 165 96 112 141